Tracking 17143 objects as of 24-May-2015
HD Live streaming from Space Station

MOZHAYETS

Track MOZHAYETS now!
10-day predictions
MOZHAYETS is classified as:


NORAD ID: 27560
Int'l Code: 2002-054B
Perigee: 680.7 km
Apogee: 737.9 km
Inclination: 98.1 °
Period: 98.8 minutes
Semi major axis: 7080 km
RCS: 1.03 m2 (large)
Launch date: November 28, 2002
Source: Commonwealth of Independent States (former USSR) (CIS)
Your satellite tracking list
Your tracking list is empty





NASA's NSSDC Master Catalog

Two Line Element Set (TLE):
1 27560U 02054B   15144.78879888  .00000489  00000-0  11740-3 0  9996
2 27560 098.1021 283.5367 0040438 298.4652 061.2464 14.57221387662111

Source of the keplerian elements: AFSPC

N2YO: 286